FW6726 Weather Reports


Display with metric or nautical units.
time (UTC)temp
F
wind
direction
speed
MPH
gust
MPH
rain 1hr
in
rain 24hr
in
rain mn
in
humidity
%
barometer
mb
20260903023202 76 306 8.0 21.0 0.00 0.00 0.00 43 1015.7
20260903022924 76 302 16.0 21.0 0.00 0.00 0.00 44 1015.7
20260903022706 76 302 16.0 21.0 0.00 0.00 0.00 44 1015.7
20260903022202 76 276 10.0 17.0 0.00 0.00 0.00 43 1015.8
20260903021703 77 285 9.0 15.0 0.00 0.00 0.00 42 1015.8
20260903021643 78 282 5.0 9.0 0.00 0.00 0.00 40 1015.8
20260903021638 77 337 4.0 10.0 0.00 0.00 0.00 40 1015.8
20260903021208 78 282 5.0 9.0 0.00 0.00 0.00 40 1015.8
20260903020205 78 230 1.0 9.0 0.00 0.00 0.00 41 1015.9
20260903015703 78 230 6.0 9.0 0.00 0.00 0.00 41 1015.9
20260903015204 78 320 2.0 6.0 0.00 0.00 0.00 42 1015.9
20260903014924 78 219 2.0 6.0 0.00 0.00 0.00 42 1015.9
20260903014204 78 295 3.0 10.0 0.00 0.00 0.00 43 1016.0
20260903013703 78 264 5.0 12.0 0.00 0.00 0.00 43 1016.0
20260903013204 78 240 8.0 19.0 0.00 0.00 0.00 43 1016.1
20260903012923 77 247 9.0 19.0 0.00 0.00 0.00 45 1016.0
20260903012811 77 247 9.0 19.0 0.00 0.00 0.00 45 1016.0
20260903012308 77 240 10.0 17.0 0.00 0.00 0.00 46 1016.0
20260903011702 77 248 11.0 20.0 0.00 0.00 0.00 46 1016.2
20260903011204 77 252 13.0 20.0 0.00 0.00 0.00 47 1016.4
20260903011147 77 243 13.0 20.0 0.00 0.00 0.00 49 1016.3
20260903010203 78 230 13.0 23.0 0.00 0.00 0.00 48 1016.4
20260903005702 78 259 16.0 23.0 0.00 0.00 0.00 48 1016.3
20260903005412 78 251 14.0 21.0 0.00 0.00 0.00 48 1016.4
20260903005359 78 248 13.0 21.0 0.00 0.00 0.00 48 1016.3
20260903004424 78 272 17.0 22.0 0.00 0.00 0.00 46 1016.3
20260903004206 78 272 17.0 22.0 0.00 0.00 0.00 46 1016.3
20260903003702 78 259 15.0 22.0 0.00 0.00 0.00 46 1016.3
20260903003429 79 217 16.0 24.0 0.00 0.00 0.00 47 1016.2
20260903003219 79 217 16.0 24.0 0.00 0.00 0.00 47 1016.2
20260903002702 79 240 17.0 24.0 0.00 0.00 0.00 47 1016.2
20260903002203 80 238 15.0 21.0 0.00 0.00 0.00 46 1016.2
20260903001703 80 279 15.0 27.0 0.00 0.00 0.00 46 1016.2
20260903001636 80 248 19.0 27.0 0.00 0.00 0.00 45 1016.3
20260903000643 80 223 17.0 24.0 0.00 0.00 0.00 45 1016.4
20260903000142 80 245 15.0 24.0 0.00 0.00 0.00 45 1016.3
20260902235640 81 251 15.0 22.0 0.00 0.00 0.00 44 1016.6
20260902235140 81 250 9.0 20.0 0.00 0.00 0.00 43 1016.6
20260902234858 82 276 13.0 20.0 0.00 0.00 0.00 44 1016.6
20260902234132 82 238 9.0 20.0 0.00 0.00 0.00 43 1016.7
20260902233631 82 234 12.0 26.0 0.00 0.00 0.00 42 1016.7
20260902233131 82 278 11.0 26.0 0.00 0.00 0.00 42 1016.8
20260902232858 82 259 11.0 21.0 0.00 0.00 0.00 42 1016.9
20260902232131 82 231 11.0 22.0 0.00 0.00 0.00 43 1017.0
20260902231630 82 269 13.0 22.0 0.00 0.00 0.00 41 1016.9
20260902231130 82 213 12.0 20.0 0.00 0.00 0.00 42 1016.9
20260902231118 83 228 15.0 22.0 0.00 0.00 0.00 40 1016.9
20260902230131 83 251 15.0 23.0 0.00 0.00 0.00 39 1016.9
20260902225735 83 234 16.0 23.0 0.00 0.00 0.00 38 1016.7
20260902225131 83 252 13.0 24.0 0.00 0.00 0.00 38 1016.9
20260902224639 84 283 16.0 24.0 0.00 0.00 0.00 38 1017.1
20260902224131 85 186 6.0 17.0 0.00 0.00 0.00 45 1017.0
20260902223631 84 114 6.0 11.0 0.00 0.00 0.00 44 1017.1
20260902223131 84 185 6.0 11.0 0.00 0.00 0.00 45 1017.4
20260902222849 83 151 6.0 14.0 0.00 0.00 0.00 46 1017.5
20260902222254 85 200 5.0 6.0 0.00 0.00 0.00 45 1017.9
20260902222250 85 151 5.0 12.0 0.00 0.00 0.00 45 1017.9
20260902222243 84 166 6.0 14.0 0.00 0.00 0.00 46 1017.6
20260902221413 85 200 5.0 6.0 0.00 0.00 0.00 45 1017.9
20260902221145 85 200 5.0 6.0 0.00 0.00 0.00 45 1017.9
20260902220626 85 172 4.0 6.0 0.00 0.00 0.00 45 1018.1
20260902220128 84 145 3.0 7.0 0.00 0.00 0.00 44 1018.1
20260902215624 84 89 5.0 7.0 0.00 0.00 0.00 42 1018.1
20260902215124 84 111 3.0 7.0 0.00 0.00 0.00 44 1018.1
20260902214624 84 96 3.0 9.0 0.00 0.00 0.00 45 1018.2
20260902214123 85 93 6.0 9.0 0.00 0.00 0.00 42 1018.3
20260902213623 85 90 4.0 10.0 0.00 0.00 0.00 44 1018.3
20260902213124 85 118 4.0 10.0 0.00 0.00 0.00 43 1018.4
20260902212623 85 142 2.0 9.0 0.00 0.00 0.00 42 1018.5
20260902212123 84 127 3.0 5.0 0.00 0.00 0.00 44 1018.5
20260902211622 84 103 2.0 9.0 0.00 0.00 0.00 44 1018.6
20260902211123 83 151 3.0 9.0 0.00 0.00 0.00 46 1018.6
20260902210622 82 94 3.0 6.0 0.00 0.00 0.00 47 1018.5
20260902210123 82 137 4.0 7.0 0.00 0.00 0.00 47 1018.6
20260902205858 82 102 4.0 7.0 0.00 0.00 0.00 45 1018.6
20260902205122 83 85 3.0 6.0 0.00 0.00 0.00 44 1018.7
20260902204622 82 94 3.0 7.0 0.00 0.00 0.00 43 1018.7
20260902204123 83 92 5.0 7.0 0.00 0.00 0.00 42 1018.7
20260902203621 83 120 3.0 7.0 0.00 0.00 0.00 43 1018.8
20260902203344 83 106 4.0 9.0 0.00 0.00 0.00 41 1018.8
20260902202623 83 133 3.0 9.0 0.00 0.00 0.00 40 1018.8
20260902202618 82 99 3.0 7.0 0.00 0.00 0.00 39 1018.8
20260902201622 82 85 4.0 7.0 0.00 0.00 0.00 40 1018.9
20260902201354 82 109 4.0 7.0 0.00 0.00 0.00 41 1019.0
20260902200846 82 93 4.0 6.0 0.00 0.00 0.00 41 1019.0
20260902200118 82 100 4.0 7.0 0.00 0.00 0.00 44 1019.1
20260902195614 81 104 3.0 7.0 0.00 0.00 0.00 44 1019.1
20260902195111 81 114 3.0 9.0 0.00 0.00 0.00 47 1019.2
20260902194611 80 128 3.0 9.0 0.00 0.00 0.00 46 1019.2
20260902194109 80 123 3.0 5.0 0.00 0.00 0.00 47 1019.3
20260902193604 80 106 2.0 6.0 0.00 0.00 0.00 50 1019.3
20260902193103 79 130 3.0 6.0 0.00 0.00 0.00 55 1019.4
20260902192607 79 130 3.0 6.0 0.00 0.00 0.00 56 1019.4
20260902192103 79 102 3.0 6.0 0.00 0.00 0.00 52 1019.5
20260902191933 79 116 4.0 6.0 0.00 0.00 0.00 56 1019.5
20260902191929 79 110 3.0 6.0 0.00 0.00 0.00 56 1019.5
20260902191240 79 94 4.0 6.0 0.00 0.00 0.00 54 1019.6
20260902191233 79 110 4.0 6.0 0.00 0.00 0.00 56 1019.5
20260902190409 79 94 4.0 6.0 0.00 0.00 0.00 54 1019.6
20260902185824 79 103 3.0 7.0 0.00 0.00 0.00 54 1019.6
20260902185103 79 106 3.0 9.0 0.00 0.00 0.00 53 1019.6
20260902185040 79 93 4.0 9.0 0.00 0.00 0.00 53 1019.6
20260902184326 79 100 2.0 6.0 0.00 0.00 0.00 54 1019.6
20260902184105 79 100 2.0 6.0 0.00 0.00 0.00 54 1019.6
20260902183603 79 100 3.0 9.0 0.00 0.00 0.00 54 1019.6
20260902183102 78 131 4.0 9.0 0.00 0.00 0.00 55 1019.6
20260902183045 78 86 4.0 7.0 0.00 0.00 0.00 55 1019.7
20260902182311 78 90 4.0 7.0 0.00 0.00 0.00 55 1019.7
20260902181554 78 89 4.0 9.0 0.00 0.00 0.00 56 1019.7
20260902181157 77 135 3.0 9.0 0.00 0.00 0.00 55 1019.7
20260902180532 77 114 3.0 7.0 0.00 0.00 0.00 55 1019.7
20260902180255 77 87 3.0 6.0 0.00 0.00 0.00 53 1019.6
20260902180015 77 100 2.0 7.0 0.00 0.00 0.00 53 1019.5
20260902175032 77 97 4.0 9.0 0.00 0.00 0.00 52 1019.5
20260902174744 76 110 3.0 6.0 0.00 0.00 0.00 50 1019.5
20260902174540 76 135 3.0 9.0 0.00 0.00 0.00 51 1019.5
20260902174537 76 110 3.0 6.0 0.00 0.00 0.00 50 1019.5
20260902174304 76 110 3.0 6.0 0.00 0.00 0.00 50 1019.5
20260902173747 76 99 3.0 7.0 0.00 0.00 0.00 51 1019.5
20260902173237 76 102 4.0 6.0 0.00 0.00 0.00 51 1019.4
20260902172520 76 110 3.0 7.0 0.00 0.00 0.00 51 1019.4
20260902172242 75 96 4.0 7.0 0.00 0.00 0.00 51 1019.4
20260902171730 75 93 4.0 7.0 0.00 0.00 0.00 52 1019.3
20260902171714 75 94 3.0 6.0 0.00 0.00 0.00 52 1019.3
20260902171325 75 93 4.0 7.0 0.00 0.00 0.00 52 1019.3
20260902170519 75 104 4.0 7.0 0.00 0.00 0.00 52 1019.3
20260902170427 74 104 3.0 6.0 0.00 0.00 0.00 52 1019.2
20260902170422 74 90 4.0 6.0 0.00 0.00 0.00 53 1019.1
20260902170418 75 104 4.0 6.0 0.00 0.00 0.00 53 1019.2
20260902170046 75 104 4.0 6.0 0.00 0.00 0.00 53 1019.2
20260902170036 74 90 4.0 6.0 0.00 0.00 0.00 53 1019.1
20260902165956 74 104 3.0 6.0 0.00 0.00 0.00 52 1019.2
20260902165520 74 90 4.0 6.0 0.00 0.00 0.00 53 1019.1
20260902165247 74 90 4.0 6.0 0.00 0.00 0.00 53 1019.1
20260902164856 74 87 5.0 7.0 0.00 0.00 0.00 54 1019.0
20260902164719 73 90 5.0 7.0 0.00 0.00 0.00 54 1019.1
20260902164715 73 102 2.0 5.0 0.00 0.00 0.00 55 1019.0
20260902164708 74 87 5.0 7.0 0.00 0.00 0.00 54 1019.0
20260902164116 73 102 2.0 5.0 0.00 0.00 0.00 55 1019.0
20260902164017 73 96 5.0 7.0 0.00 0.00 0.00 55 1019.0
20260902164004 72 87 2.0 7.0 0.00 0.00 0.00 57 1019.0
20260902163957 73 102 3.0 6.0 0.00 0.00 0.00 57 1019.1
20260902163945 73 89 4.0 7.0 0.00 0.00 0.00 55 1019.1
20260902163934 73 90 5.0 7.0 0.00 0.00 0.00 54 1019.1
20260902161534 72 87 2.0 7.0 0.00 0.00 0.00 57 1019.0
20260902161015 72 89 6.0 7.0 0.00 0.00 0.00 56 1019.0
20260902160741 72 87 4.0 6.0 0.00 0.00 0.00 57 1018.9
20260902160237 71 87 5.0 6.0 0.00 0.00 0.00 59 1019.0
20260902160229 71 87 2.0 6.0 0.00 0.00 0.00 60 1018.9
20260902155801 70 85 5.0 6.0 0.00 0.00 0.00 60 1018.9
20260902154516 70 73 4.0 9.0 0.00 0.00 0.00 61 1018.9
20260902154239 69 78 5.0 9.0 0.00 0.00 0.00 62 1018.8
20260902153516 69 54 4.0 7.0 0.00 0.00 0.00 63 1018.8
20260902153019 69 59 6.0 7.0 0.00 0.00 0.00 63 1018.7
20260902153013 69 59 5.0 6.0 0.00 0.00 0.00 65 1018.6
20260902152902 69 59 5.0 6.0 0.00 0.00 0.00 65 1018.6
20260902152015 69 58 5.0 6.0 0.00 0.00 0.00 66 1018.6
20260902152007 68 66 4.0 6.0 0.00 0.00 0.00 67 1018.6
20260902151234 68 61 2.0 4.0 0.00 0.00 0.00 68 1018.7
20260902150515 67 52 2.0 6.0 0.00 0.00 0.00 68 1018.6
20260902150019 67 65 3.0 6.0 0.00 0.00 0.00 68 1018.6
20260902145959 67 47 4.0 6.0 0.00 0.00 0.00 68 1018.5
20260902145828 67 47 4.0 6.0 0.00 0.00 0.00 68 1018.5
20260902145014 67 62 5.0 6.0 0.00 0.00 0.00 68 1018.6
20260902144515 66 62 4.0 5.0 0.00 0.00 0.00 68 1018.5
20260902144013 66 54 2.0 5.0 0.00 0.00 0.00 69 1018.5
20260902143741 66 39 2.0 4.0 0.00 0.00 0.00 69 1018.5
20260902143607 66 39 2.0 4.0 0.00 0.00 0.00 69 1018.5
20260902143237 65 0 0.0 0.0 0.00 0.00 0.00 69 1018.4
20260902142513 65 0 0.0 0.0 0.00 0.00 0.00 70 1018.4
20260902142014 64 1 0.0 0.0 0.00 0.00 0.00 70 1018.3
20260902141513 64 1 0.0 0.0 0.00 0.00 0.00 70 1018.2
20260902141234 64 1 0.0 0.0 0.00 0.00 0.00 70 1018.1
20260902140513 64 1 0.0 0.0 0.00 0.00 0.00 70 1018.1
20260902140016 64 1 0.0 0.0 0.00 0.00 0.00 70 1018.2
20260902135737 64 1 0.0 0.0 0.00 0.00 0.00 70 1018.2
20260902135014 63 1 0.0 0.0 0.00 0.00 0.00 70 1018.1
20260902134957 63 1 0.0 0.0 0.00 0.00 0.00 70 1018.2
20260902134014 63 1 0.0 0.0 0.00 0.00 0.00 70 1018.1
20260902133512 63 1 0.0 1.0 0.00 0.00 0.00 69 1018.2
20260902133014 63 0 0.0 1.0 0.00 0.00 0.00 69 1018.1
20260902132512 63 1 0.0 0.0 0.00 0.00 0.00 69 1018.1
20260902132013 63 302 0.0 0.0 0.00 0.00 0.00 69 1018.1
20260902131514 63 238 0.0 0.0 0.00 0.00 0.00 69 1017.9
20260902131013 63 238 0.0 0.0 0.00 0.00 0.00 68 1017.9
20260902130513 63 238 0.0 0.0 0.00 0.00 0.00 68 1017.9
20260902130236 63 238 0.0 1.0 0.00 0.00 0.00 68 1018.1
20260902125512 63 238 0.0 1.0 0.00 0.00 0.00 68 1018.1
20260902125011 63 238 0.0 0.0 0.00 0.00 0.00 67 1018.1
20260902124511 63 238 0.0 1.0 0.00 0.00 0.00 67 1017.9
20260902124010 63 238 0.0 1.0 0.00 0.00 0.00 66 1017.8
20260902123732 63 238 1.0 2.0 0.00 0.00 0.00 65 1017.7
20260902123012 63 238 1.0 3.0 0.00 0.00 0.00 65 1017.7
20260902122511 63 238 2.0 3.0 0.00 0.00 0.00 64 1017.7
20260902122003 63 238 2.0 3.0 0.00 0.00 0.00 64 1017.7
20260902121504 63 238 2.0 3.0 0.00 0.00 0.00 64 1017.6
20260902121006 63 238 2.0 4.0 0.00 0.00 0.00 64 1017.6
20260902120502 63 233 3.0 4.0 0.00 0.00 0.00 64 1017.5
20260902115957 63 226 2.0 3.0 0.00 0.00 0.00 65 1017.5
20260902115451 63 224 0.0 0.0 0.00 0.00 0.00 65 1017.4
20260902114952 63 224 0.0 0.0 0.00 0.00 0.00 65 1017.4
20260902114445 63 224 0.0 0.0 0.00 0.00 0.00 66 1017.4
20260902113942 63 224 0.0 0.0 0.00 0.00 0.00 65 1017.3
20260902113443 63 224 0.0 0.0 0.00 0.00 0.00 64 1017.4
20260902112932 63 224 0.0 0.0 0.00 0.00 0.00 63 1017.3
20260902112433 63 224 0.0 0.0 0.00 0.00 0.00 62 1017.3
20260902111933 63 224 0.0 0.0 0.00 0.00 0.00 63 1017.2
20260902111432 64 224 0.0 0.0 0.00 0.00 0.00 62 1017.3
20260902110932 64 224 0.0 0.0 0.00 0.00 0.00 62 1017.3
20260902110432 64 224 0.0 0.0 0.00 0.00 0.00 62 1017.2
20260902105932 64 224 0.0 0.0 0.00 0.00 0.00 61 1017.3
20260902105431 64 224 0.0 0.0 0.00 0.00 0.00 61 1017.3
20260902105159 64 224 0.0 0.0 0.00 0.00 0.00 61 1017.3
20260902104431 64 224 0.0 0.0 0.00 0.00 0.00 61 1017.3
20260902104151 64 224 0.0 0.0 0.00 0.00 0.00 61 1017.5
20260902103413 64 224 0.0 0.0 0.00 0.00 0.00 60 1017.5
20260902103133 65 224 0.0 0.0 0.00 0.00 0.00 60 1017.6
20260902102411 65 224 0.0 0.0 0.00 0.00 0.00 60 1017.5
20260902101910 65 224 0.0 2.0 0.00 0.00 0.00 60 1017.6
20260902101408 65 224 0.0 2.0 0.00 0.00 0.00 60 1017.5
20260902100910 65 224 2.0 4.0 0.00 0.00 0.00 58 1017.5
20260902100408 65 224 2.0 4.0 0.00 0.00 0.00 58 1017.4
20260902095909 65 227 0.0 0.0 0.00 0.00 0.00 59 1017.4
20260902095408 65 228 0.0 0.0 0.00 0.00 0.00 58 1017.3
20260902095127 65 228 0.0 0.0 0.00 0.00 0.00 58 1017.2
20260902095117 65 228 0.0 0.0 0.00 0.00 0.00 58 1017.2
20260902093909 65 228 0.0 0.0 0.00 0.00 0.00 58 1017.2
20260902093403 65 228 0.0 0.0 0.00 0.00 0.00 58 1017.3
20260902092903 65 228 0.0 0.0 0.00 0.00 0.00 58 1017.3
20260902092402 65 228 0.0 0.0 0.00 0.00 0.00 58 1017.3
20260902091903 65 228 0.0 0.0 0.00 0.00 0.00 58 1017.4
20260902091402 65 228 0.0 0.0 0.00 0.00 0.00 58 1017.4
20260902091126 65 228 0.0 0.0 0.00 0.00 0.00 58 1017.2
20260902090402 65 228 0.0 0.0 0.00 0.00 0.00 57 1017.3
20260902085850 65 228 0.0 0.0 0.00 0.00 0.00 57 1017.4
20260902085347 65 228 0.0 0.0 0.00 0.00 0.00 57 1017.3
20260902085319 65 228 0.0 0.0 0.00 0.00 0.00 57 1017.2
20260902084553 65 228 0.0 0.0 0.00 0.00 0.00 57 1017.2
20260902083832 65 228 0.0 2.0 0.00 0.00 0.00 58 1017.3
20260902083555 65 228 1.0 2.0 0.00 0.00 0.00 58 1017.4
20260902082832 65 228 0.0 3.0 0.00 0.00 0.00 58 1017.3
20260902082817 65 228 0.0 3.0 0.00 0.00 0.00 57 1017.3
20260902081832 65 228 2.0 3.0 0.00 0.00 0.00 57 1017.4
20260902081332 65 228 1.0 3.0 0.00 0.00 0.00 58 1017.5
20260902080831 66 220 0.0 0.0 0.00 0.00 0.00 58 1017.5
20260902080331 66 220 0.0 0.0 0.00 0.00 0.00 58 1017.4
20260902075832 66 220 0.0 0.0 0.00 0.00 0.00 58 1017.5
20260902075810 66 220 0.0 0.0 0.00 0.00 0.00 58 1017.4
20260902074834 66 220 0.0 0.0 0.00 0.00 0.00 58 1017.5
20260902074333 66 220 0.0 0.0 0.00 0.00 0.00 58 1017.4
20260902073833 66 220 0.0 0.0 0.00 0.00 0.00 57 1017.5
20260902073331 66 220 0.0 0.0 0.00 0.00 0.00 57 1017.3
20260902072832 66 220 0.0 0.0 0.00 0.00 0.00 58 1017.3
20260902072331 66 220 0.0 0.0 0.00 0.00 0.00 57 1017.4
20260902071825 66 220 0.0 0.0 0.00 0.00 0.00 56 1017.3
20260902071312 66 220 0.0 2.0 0.00 0.00 0.00 56 1017.2
20260902070814 66 220 0.0 3.0 0.00 0.00 0.00 56 1017.3
20260902070310 66 220 2.0 3.0 0.00 0.00 0.00 56 1017.2
20260902065807 66 220 2.0 4.0 0.00 0.00 0.00 56 1017.2
20260902065309 66 220 3.0 4.0 0.00 0.00 0.00 56 1017.2
20260902064808 66 75 0.0 0.0 0.00 0.00 0.00 56 1017.1
20260902064306 66 75 0.0 0.0 0.00 0.00 0.00 57 1017.2
20260902063805 66 75 0.0 0.0 0.00 0.00 0.00 59 1017.0
20260902063747 66 75 0.0 0.0 0.00 0.00 0.00 60 1017.1
20260902062804 67 75 0.0 0.0 0.00 0.00 0.00 59 1017.0
20260902062306 67 75 0.0 2.0 0.00 0.00 0.00 59 1017.0
20260902062023 67 75 0.0 3.0 0.00 0.00 0.00 59 1017.1
20260902061528 67 75 2.0 3.0 0.00 0.00 0.00 58 1017.2
20260902060802 67 75 0.0 3.0 0.00 0.00 0.00 57 1017.2
20260902060303 67 75 0.0 4.0 0.00 0.00 0.00 56 1017.2
20260902055803 67 75 2.0 4.0 0.00 0.00 0.00 56 1017.1
20260902055306 67 75 1.0 5.0 0.00 0.00 0.00 56 1017.1
20260902054803 67 75 3.0 5.0 0.00 0.00 0.00 56 1017.2
20260902054303 67 56 0.0 1.0 0.00 0.00 0.00 56 1017.1
20260902053802 67 56 0.0 0.0 0.00 0.00 0.00 56 1017.1
20260902053303 67 56 0.0 0.0 0.00 0.00 0.00 56 1017.1
20260902052803 67 56 0.0 0.0 0.00 0.00 0.00 56 1017.1
20260902052306 68 56 0.0 0.0 0.00 0.00 0.00 57 1017.1
20260902051802 68 56 0.0 0.0 0.00 0.00 0.00 57 1017.1
20260902051522 68 56 0.0 0.0 0.00 0.00 0.00 56 1017.1
20260902050801 68 56 0.0 0.0 0.00 0.00 0.00 57 1017.1
20260902050303 68 56 0.0 0.0 0.00 0.00 0.00 56 1017.0
20260902045802 68 56 0.0 0.0 0.00 0.00 0.00 56 1016.9
20260902045306 68 56 0.0 0.0 0.00 0.00 0.00 56 1016.9
20260902045022 68 56 0.0 0.0 0.00 0.00 0.00 56 1016.8
20260902044302 68 56 0.0 0.0 0.00 0.00 0.00 56 1016.7
20260902043801 68 56 0.0 0.0 0.00 0.00 0.00 56 1016.7
20260902043302 68 56 0.0 0.0 0.00 0.00 0.00 56 1016.6
20260902043024 69 56 0.0 0.0 0.00 0.00 0.00 55 1016.6
20260902042308 69 56 0.0 3.0 0.00 0.00 0.00 55 1016.7
20260902041759 69 56 0.0 4.0 0.00 0.00 0.00 55 1016.6
20260902041301 69 56 2.0 4.0 0.00 0.00 0.00 55 1016.6
20260902040759 69 10 2.0 3.0 0.00 0.00 0.00 55 1016.6
20260902040259 69 0 1.0 3.0 0.00 0.00 0.00 55 1016.6
20260902035759 69 0 2.0 3.0 0.00 0.00 0.00 55 1016.6
20260902035259 69 0 2.0 3.0 0.00 0.00 0.00 55 1016.5
20260902034759 69 313 1.0 4.0 0.00 0.00 0.00 53 1016.4
20260902034259 69 307 1.0 4.0 0.00 0.00 0.00 53 1016.3
20260902033759 69 313 2.0 5.0 0.00 0.00 0.00 53 1016.3
20260902033300 68 306 4.0 6.0 0.00 0.00 0.00 54 1016.2
20260902032759 68 292 4.0 7.0 0.00 0.00 0.00 54 1016.3
20260902032243 68 305 5.0 7.0 0.00 0.00 0.00 54 1016.2
20260902031743 68 288 4.0 5.0 0.00 0.00 0.00 54 1016.2
20260902031242 68 276 1.0 7.0 0.00 0.00 0.00 54 1016.3
20260902030738 68 279 5.0 7.0 0.00 0.00 0.00 54 1016.3
20260902030238 68 281 3.0 9.0 0.00 0.00 0.00 53 1016.2
20260902025736 69 288 6.0 9.0 0.00 0.00 0.00 52 1016.1
20260902025236 69 262 5.0 7.0 0.00 0.00 0.00 51 1016.1
20260902024732 70 244 6.0 7.0 0.00 0.00 0.00 51 1016.1
20260902024233 70 254 3.0 7.0 0.00 0.00 0.00 51 1016.1
20260902023732 71 203 2.0 7.0 0.00 0.00 0.00 50 1016.1